sat.trackr.live / text

‹ back to catalog

STARLINK-31440

NORAD 58999 · 2024-036B

PAYLOAD ACTIVE UNKNOWN

§ Identity

Operator
Country
US
Launch date
2024-02-23
Launch site
AFWTR
Launch vehicle
Mass (kg)
RCS (m²)

Purposes: comms

External: N2YO · Heavens-Above · Gunter

§ Orbital elements

Epoch: 2026-05-25T02:04:20.608032Z

Period
94.10 min
Inclination
53.1598°
Eccentricity
0.0001268
Mean motion
15.30207759 rev/d
Perigee alt
474.3 km
Apogee alt
476.1 km
Semi-major
6,853.3 km
B*
1.1478e-4
RAAN
83.0101°
Arg perigee
86.2582°
Mean anomaly
273.8563°
Rev number
12,621

§ Raw data

STARLINK-314401 58999U 24036B   26145.08634963  .00003042  00000+0  11478-3 0  99942 58999  53.1598  83.0101 0001268  86.2582 273.8563 15.30207759126219

JSON: /api/v1/satellites/58999 · /tle

For live sub-satellite position, see the globe view (requires WebGL).

§ Visibility from observer

Set your observer location to see the next 7 days of passes ≥ 10°. The values pass through the URL so the page stays shareable.

No JS? Fill the form by hand. The geolocation button needs JavaScript.